This demonstration page uses our WeatherBlox Daily Observations layout. Learn more.

Left ArrowRight Arrow

38.20091, -84.87328

Hourly Observations for January 11, 2015

Temp ( °F °C ) Dew Point ( °F °C ) Humidity (%) Winds ( mph kmh ) Pressure ( in mb ) Visibility ( mi km ) Precip ( " mm )
12:53 am 00:53 Clear 12 -11.1 4 -15.6 70 70 Calm 30.49 1032 10 16 0.00 0.00
1:53 am 01:53 Clear 12 -11.1 5 -15 73 73 ESE 3 6 30.48 1032 10 16 0.00 0.00
2:53 am 02:53 Clear 15 -9.4 6 -14.4 67 67 SSE 5 7 30.48 1032 10 16 0.00 0.00
3:53 am 03:53 Clear 15 -9.4 6 -14.4 67 67 Calm 30.47 1032 10 16 0.00 0.00
4:53 am 04:53 Cloudy 21 -6.1 10 -12.2 62 62 Calm 30.45 1031 10 16 0.00 0.00
5:53 am 05:53 Cloudy 23 -5 12 -11.1 63 63 SE 3 6 30.45 1031 10 16 0.00 0.00
6:53 am 06:53 Cloudy 25 -3.9 13 -10.6 60 60 Calm 30.45 1031 10 16 0.00 0.00
7:53 am 07:53 Mostly Cloudy 23 -5 12 -11.1 63 63 SE 5 7 30.45 1031 10 16 0.00 0.00
8:53 am 08:53 Cloudy 27 -2.8 13 -10.6 55 55 SSE 6 9 30.45 1031 10 16 0.00 0.00
9:53 am 09:53 Mostly Cloudy 29 -1.7 12 -11.1 49 49 S 6 9 30.47 1032 10 16 0.00 0.00
10:53 am 10:53 Cloudy 33 0.6 14 -10 45 45 S 5 7 30.47 1032 10 16 0.00 0.00
11:53 am 11:53 Cloudy 38 3.3 14 -10 37 37 SSW 8 13 30.45 1031 10 16 0.00 0.00
12:53 pm 12:53 Cloudy 42 5.6 13 -10.6 30 30 SSW 8 13 30.40 1030 10 16 0.00 0.00
1:53 pm 13:53 Cloudy 43 6.1 12 -11.1 28 28 SW 15 24 30.38 1029 10 16 0.00 0.00
2:53 pm 14:53 Cloudy 43 6.1 15 -9.4 32 32 SSW 9 15 30.37 1029 10 16 0.00 0.00
3:53 pm 15:53 Cloudy 42 5.6 23 -5 47 47 SSW 5 7 30.38 1029 10 16 0.00 0.00
4:53 pm 16:53 Cloudy with Light Rain 40 4.4 26 -3.3 58 58 S 3 6 30.37 1028 10 16 0.00 0.03
5:53 pm 17:53 Cloudy 37 2.8 31 -0.6 79 79 Calm 30.37 1029 10 16 0.01 0.25
6:53 pm 18:53 Cloudy 36 2.2 33 0.6 89 89 Calm 30.38 1029 10 16 0.00 0.00
7:53 pm 19:53 Cloudy 37 2.8 31 -0.6 79 79 Calm 30.38 1029 10 16 0.00 0.00
8:36 pm 20:36 Cloudy 37 2.8 31 -0.6 79 79 ENE 3 6 30.42 1030 10 16 0.00 0.00
8:53 pm 20:53 Cloudy 37 2.8 32 0 82 82 Calm 30.37 1028 10 16 0.00 0.00
9:53 pm 21:53 Cloudy 36 2.2 32 0 86 86 Calm 30.35 1028 10 16 0.00 0.00
10:53 pm 22:53 Cloudy 36 2.2 31 -0.6 82 82 Calm 30.33 1027 10 16 0.00 0.00
11:53 pm 23:53 Cloudy 36 2.2 31 -0.6 82 82 ENE 3 6 30.29 1026 8 13 0.00 0.03

Powered by AerisWeather